Location: Unspecified
(0.0000°N, 0.0000°E)
Time: 18:03:58
(UTC+00:00)

Envisat - Pass Details

Date: 11 May 2021
Orbit: 764 x 766 km, 98.1° (Epoch: 14 May)

Event Time Altitude Azimuth Distance (km) Brightness Sun altitude
Rises 04:06:57 0° 43° (NE) 3,216 7.2 -25.9°
Reaches altitude 10° 04:10:04 10° 64° (ENE) 2,294 6.5 -25.2°
Maximum altitude 04:13:13 17° 103° (ESE) 1,874 5.7 -24.5°
Drops below altitude 10° 04:16:22 10° 141° (SE) 2,300 5.7 -23.7°
Sets 04:19:28 0° 161° (SSE) 3,229 6.2 -23.0°
